Weather History for Iowa Falls, IA

Change the Weather History Date:

Thursday, May 16, 2013

  Actual Average Record
Temperature  
Mean Temperature 67 °F -  
Max Temperature 82 °F 73 °F 88 °F (1962)
Min Temperature 52 °F 47 °F 33 °F (1956)
Cooling Degree Days 2    
Growing Degree Days 17 (Base 50)    
Moisture  
Dew Point 51 °F    
Average Humidity 54    
Maximum Humidity 86    
Minimum Humidity 28    
Precipitation  
Precipitation 0.00 in - - ()
Sea Level Pressure  
Sea Level Pressure 29.89 in    
Wind  
Wind Speed 3 mph (SE)    
Max Wind Speed 17 mph    
Max Gust Speed 23 mph    
Visibility 10 miles    
Events Rain    
Averages and records for this station are not official NWS values.
T = Trace of Precipitation, MM = Missing Value Source: NWS Daily Summary

Daily Weather History Graph

Daily Weather History Graph

Search for Another Location

Airport:

Trip Planner

Search our weather history database for the weather conditions in past years. The results will help you decide how hot, cold, wet, or windy it might be!

Date:

Astronomy

May. 16, 2013 Rise Set
Actual Time 5:50 AM CDT 8:29 PM CDT
Civil Twilight 5:17 AM CDT 9:01 PM CDT
Nautical Twilight 4:37 AM CDT 9:42 PM CDT
Astronomical Twilight 3:50 AM CDT 10:29 PM CDT
Moon 11:26 AM CDT (5/16) 12:48 AM CDT (5/16)
Length of Visible Light 15h 44m
Length of Day
14h 39m
Waxing Crescent, 36% of the Moon is Illuminated
May 16
Waxing Crescent
May 17
First Quarter
May 24
Full
May 31
Last Quarter
Jun 8
New

Hourly Weather History & Observations

Time (CDT) Temp. Dew Point Humidity Pressure Visibility Wind Dir Wind Speed Gust Speed Precip Events Conditions
12:15 AM 62.8 °F 48.7 °F 60% 29.90 in 10.0 mi Calm Calm - N/A   Clear
12:35 AM 61.9 °F 49.5 °F 64% 29.90 in 10.0 mi Calm Calm - N/A   Clear
12:55 AM 60.8 °F 48.9 °F 65% 29.90 in 10.0 mi Calm Calm - N/A   Clear
1:15 AM 58.1 °F 49.5 °F 73% 29.90 in 10.0 mi Calm Calm - N/A   Clear
1:35 AM 57.4 °F 50.0 °F 76% 29.90 in 10.0 mi Calm Calm - N/A   Clear
1:55 AM 58.8 °F 49.3 °F 71% 29.90 in 10.0 mi Calm Calm - N/A   Scattered Clouds
2:15 AM 59.4 °F 49.1 °F 69% 29.90 in 10.0 mi Calm Calm - N/A   Mostly Cloudy
2:35 AM 58.1 °F 50.0 °F 74% 29.89 in 10.0 mi Calm Calm - N/A   Scattered Clouds
2:55 AM 57.2 °F 50.2 °F 77% 29.89 in 10.0 mi Calm Calm - N/A   Mostly Cloudy
3:15 AM 57.6 °F 49.1 °F 73% 29.89 in 10.0 mi Calm Calm - N/A   Scattered Clouds
3:35 AM 58.1 °F 48.4 °F 70% 29.89 in 10.0 mi Calm Calm - N/A   Clear
3:55 AM 57.6 °F 47.5 °F 69% 29.90 in 10.0 mi SSW 6.9 mph - N/A   Clear
4:15 AM 56.1 °F 47.7 °F 73% 29.90 in 10.0 mi South 3.5 mph - N/A   Clear
4:55 AM 55.9 °F 47.7 °F 74% 29.90 in 10.0 mi Calm Calm - N/A   Clear
5:15 AM 54.7 °F 47.5 °F 77% 29.91 in 10.0 mi North 3.5 mph - N/A   Clear
5:35 AM 54.5 °F 48.2 °F 79% 29.91 in 10.0 mi Calm Calm - N/A   Clear
5:55 AM 53.4 °F 47.8 °F 81% 29.92 in 10.0 mi Calm Calm - N/A   Clear
6:15 AM 52.3 °F 47.5 °F 84% 29.92 in 10.0 mi Calm Calm - N/A   Clear
6:35 AM 54.3 °F 48.2 °F 80% 29.93 in 10.0 mi Calm Calm - N/A   Clear
6:55 AM 56.3 °F 50.0 °F 79% 29.93 in 10.0 mi Calm Calm - N/A   Clear
7:15 AM 57.4 °F 50.7 °F 78% 29.94 in 10.0 mi Calm Calm - N/A   Clear
7:35 AM 61.2 °F 50.4 °F 68% 29.94 in 10.0 mi Calm Calm - N/A   Clear
7:55 AM 63.5 °F 49.5 °F 60% 29.94 in 10.0 mi Calm Calm - N/A   Clear
8:15 AM 65.8 °F 48.9 °F 54% 29.94 in 10.0 mi Calm Calm - N/A   Clear
8:35 AM 66.9 °F 49.5 °F 53% 29.94 in 10.0 mi SE 3.5 mph - N/A   Clear
8:55 AM 69.1 °F 49.8 °F 50% 29.94 in 10.0 mi Calm Calm - N/A   Clear
9:15 AM 70.9 °F 49.6 °F 47% 29.94 in 10.0 mi SSE 3.5 mph - N/A   Clear
9:35 AM 72.5 °F 46.2 °F 39% 29.94 in 10.0 mi Calm Calm - N/A   Clear
9:55 AM 74.5 °F 47.1 °F 38% 29.94 in 10.0 mi East 4.6 mph - N/A   Clear
10:15 AM 75.4 °F 44.1 °F 33% 29.93 in 10.0 mi East 4.6 mph - N/A   Clear
10:35 AM 77.0 °F 44.6 °F 32% 29.93 in 10.0 mi ENE 4.6 mph - N/A   Clear
10:55 AM 78.1 °F 44.2 °F 30% 29.93 in 10.0 mi East 4.6 mph - N/A   Clear
11:15 AM 78.3 °F 44.2 °F 30% 29.92 in 10.0 mi SE 8.1 mph - N/A   Clear
11:35 AM 78.8 °F 44.1 °F 29% 29.91 in 10.0 mi East 10.4 mph - N/A   Clear
11:55 AM 79.5 °F 45.9 °F 30% 29.91 in 10.0 mi SE 4.6 mph - N/A   Clear
12:15 PM 79.9 °F 45.5 °F 30% 29.90 in 10.0 mi SE 3.5 mph 16.1 mph N/A   Clear
12:35 PM 80.1 °F 45.7 °F 30% 29.89 in 10.0 mi SE 8.1 mph 16.1 mph N/A   Clear
12:55 PM 80.4 °F 45.9 °F 30% 29.89 in 10.0 mi SE 15.0 mph - N/A   Clear
1:15 PM 80.6 °F 45.1 °F 29% 29.88 in 10.0 mi East 6.9 mph 18.4 mph N/A   Clear
1:35 PM 80.6 °F 45.3 °F 29% 29.88 in 10.0 mi SE 8.1 mph - N/A   Clear
1:55 PM 81.0 °F 45.9 °F 29% 29.87 in 10.0 mi ESE 10.4 mph 16.1 mph N/A   Clear
2:15 PM 81.3 °F 44.8 °F 28% 29.87 in 10.0 mi ESE 9.2 mph 16.1 mph N/A   Clear
2:35 PM 81.9 °F 46.9 °F 29% 29.86 in 10.0 mi ESE 11.5 mph 17.3 mph N/A   Clear
2:55 PM 81.9 °F 46.2 °F 29% 29.86 in 10.0 mi ESE 13.8 mph - N/A   Clear
3:15 PM 82.0 °F 47.7 °F 30% 29.86 in 10.0 mi SE 13.8 mph 18.4 mph N/A   Clear
3:35 PM 81.5 °F 47.1 °F 30% 29.86 in 10.0 mi SSE 13.8 mph 20.7 mph N/A   Clear
3:55 PM 81.5 °F 46.0 °F 29% 29.86 in 10.0 mi SE 10.4 mph 16.1 mph N/A   Clear
4:15 PM 82.0 °F 47.1 °F 29% 29.86 in 10.0 mi SE 12.7 mph 18.4 mph N/A   Scattered Clouds
4:35 PM 82.0 °F 48.9 °F 31% 29.85 in 10.0 mi SE 11.5 mph 19.6 mph N/A   Mostly Cloudy
4:55 PM 82.4 °F 51.1 °F 34% 29.85 in 10.0 mi SSE 8.1 mph 21.9 mph N/A   Scattered Clouds
5:15 PM 80.4 °F 52.7 °F 38% 29.84 in 10.0 mi SSE 17.3 mph 23.0 mph N/A   Mostly Cloudy
5:35 PM 79.5 °F 52.7 °F 39% 29.84 in 10.0 mi SSE 13.8 mph 20.7 mph N/A   Mostly Cloudy
5:55 PM 79.2 °F 52.9 °F 40% 29.84 in 10.0 mi South 16.1 mph - N/A   Mostly Cloudy
6:15 PM 78.6 °F 52.7 °F 40% 29.84 in 10.0 mi SSE 15.0 mph - N/A   Mostly Cloudy
6:35 PM 77.9 °F 55.8 °F 46% 29.84 in 10.0 mi SSE 11.5 mph - N/A   Mostly Cloudy
6:55 PM 77.0 °F 55.9 °F 48% 29.84 in 10.0 mi SSE 12.7 mph - N/A   Mostly Cloudy
7:15 PM 76.3 °F 56.8 °F 51% 29.85 in 10.0 mi SSE 10.4 mph - N/A   Overcast
7:35 PM 75.6 °F 57.7 °F 54% 29.85 in 10.0 mi SSE 8.1 mph - N/A Rain Light Rain
7:55 PM 75.2 °F 57.9 °F 55% 29.86 in 10.0 mi SE 6.9 mph - N/A   Mostly Cloudy
8:15 PM 75.2 °F 57.7 °F 54% 29.86 in 10.0 mi SE 5.8 mph - N/A   Mostly Cloudy
8:35 PM 72.9 °F 59.4 °F 62% 29.87 in 10.0 mi ESE 3.5 mph - N/A   Overcast
8:55 PM 72.0 °F 59.4 °F 64% 29.87 in 10.0 mi SE 4.6 mph - N/A   Overcast
9:15 PM 72.7 °F 59.0 °F 62% 29.87 in 10.0 mi ESE 4.6 mph - N/A   Overcast
9:35 PM 72.7 °F 58.6 °F 61% 29.88 in 10.0 mi Calm Calm - N/A   Overcast
9:55 PM 71.8 °F 58.1 °F 62% 29.89 in 10.0 mi Calm Calm - N/A Rain Light Rain
10:15 PM 71.2 °F 59.5 °F 66% 29.89 in 10.0 mi ESE 3.5 mph - N/A Rain Light Rain
10:35 PM 69.6 °F 60.3 °F 72% 29.89 in 10.0 mi SE 3.5 mph - N/A   Light Drizzle
10:55 PM 68.9 °F 62.6 °F 80% 29.90 in 10.0 mi WNW 11.5 mph 23.0 mph N/A   Mostly Cloudy
11:35 PM 67.5 °F 61.7 °F 82% 29.86 in 10.0 mi NE 5.8 mph - N/A   Mostly Cloudy
11:55 PM 66.6 °F 62.4 °F 86% 29.85 in 10.0 mi ENE 8.1 mph - N/A Rain Light Rain